BSAT-2C                 
1 27830U 03028A   19265.52072391  .00000053  00000-0  00000+0 0  9992
2 27830   4.7355  70.1969 0007401 236.4618 315.9370  0.99197123 59429
OPTUS C1                
1 27831U 03028B   19265.48210231 -.00000157  00000-0  00000+0 0  9991
2 27831   0.7834  97.9140 0005167  84.9188 147.5079  1.00271720 59650
ARIANE 5 R/B            
1 27832U 03028C   19263.65981912 -.00000033  00000-0 -11543-3 0  9992
2 27832   7.4005 332.0498 7171256 268.6373  15.9539  2.24762694133688
ARIANE 5 DEB [SYLDA]    
1 27833U 03028D   19264.44989848  .00000125  00000-0  19203-2 0  9997
2 27833   7.1456 328.3296 7152051 278.3221  52.1829  2.26091860134376